Location: ??????????
(54.8537°N, 38.8755°E)
Time: 23:00:36
(UTC+00:00)

Transit 2A Rocket - Pass Details

Date: 15 September 2024
Orbit: 582 x 908 km, 66.7° (Epoch: 09 October)

Event Time Altitude Azimuth Distance (km) Brightness Sun altitude
Exits shadow 21:15:35 40° 62° (ENE) 1,324 6.3 -32.6°
Drops below altitude 10° 21:19:29 10° 46° (NE) 2,597 8.2 -32.6°
Sets 21:22:00 0° 43° (NE) 3,527 9.0 -32.6°
